| time (UTC) | temp F | wind direction | speed MPH | gust MPH | rain 1hr in | rain 24hr in | rain mn in | humidity % | barometer mb |
| 20260509002236 | 59 | 92 | 5.0 | 8.0 | 0.00 | 0.00 | 0.00 | 56 | 1030.3 |
| 20260509001734 | 59 | 81 | 3.0 | 8.0 | 0.00 | 0.00 | 0.00 | 57 | 1030.3 |
| 20260509001230 | 59 | 71 | 5.0 | 7.0 | 0.00 | 0.00 | 0.00 | 57 | 1030.4 |
| 20260509000728 | 58 | 74 | 6.0 | 6.0 | 0.00 | 0.00 | 0.00 | 57 | 1030.4 |
| 20260509000226 | 58 | 78 | 4.0 | 6.0 | 0.00 | 0.00 | 0.00 | 58 | 1030.3 |
| 20260508235722 | 57 | 28 | 4.0 | 5.0 | 0.00 | 0.00 | 0.00 | 59 | 1030.4 |
| 20260508235218 | 57 | 56 | 4.0 | 6.0 | 0.00 | 0.00 | 0.00 | 60 | 1030.2 |
| 20260508234716 | 56 | 77 | 5.0 | 7.0 | 0.00 | 0.00 | 0.00 | 60 | 1030.2 |
| 20260508234212 | 56 | 88 | 5.0 | 6.0 | 0.00 | 0.00 | 0.00 | 60 | 1030.2 |
| 20260508233711 | 56 | 70 | 3.0 | 5.0 | 0.00 | 0.00 | 0.00 | 61 | 1030.2 |
| 20260508233209 | 55 | 104 | 4.0 | 8.0 | 0.00 | 0.00 | 0.00 | 62 | 1030.2 |
| 20260508232706 | 55 | 91 | 8.0 | 8.0 | 0.00 | 0.00 | 0.00 | 63 | 1030.2 |
| 20260508232202 | 54 | 94 | 7.0 | 8.0 | 0.00 | 0.00 | 0.00 | 64 | 1030.1 |
| 20260508231700 | 53 | 92 | 4.0 | 6.0 | 0.00 | 0.00 | 0.00 | 65 | 1030.1 |
| 20260508231157 | 53 | 70 | 5.0 | 8.0 | 0.00 | 0.00 | 0.00 | 66 | 1030.2 |
| 20260508230654 | 53 | 94 | 4.0 | 6.0 | 0.00 | 0.00 | 0.00 | 66 | 1030.1 |
| 20260508230150 | 53 | 71 | 5.0 | 6.0 | 0.00 | 0.00 | 0.00 | 66 | 1030.0 |
| 20260508225648 | 52 | 95 | 4.0 | 6.0 | 0.00 | 0.00 | 0.00 | 67 | 1030.0 |
| 20260508225144 | 52 | 101 | 4.0 | 5.0 | 0.00 | 0.00 | 0.00 | 67 | 1029.9 |
| 20260508224642 | 52 | 82 | 4.0 | 7.0 | 0.00 | 0.00 | 0.00 | 67 | 1030.0 |
| 20260508224139 | 52 | 106 | 6.0 | 8.0 | 0.00 | 0.00 | 0.00 | 67 | 1029.9 |
| 20260508223637 | 52 | 98 | 8.0 | 8.0 | 0.00 | 0.00 | 0.00 | 67 | 1029.8 |
| 20260508223134 | 52 | 100 | 5.0 | 8.0 | 0.00 | 0.00 | 0.00 | 67 | 1029.9 |
| 20260508222631 | 52 | 104 | 7.0 | 8.0 | 0.00 | 0.00 | 0.00 | 67 | 1029.7 |
| 20260508222128 | 52 | 99 | 4.0 | 8.0 | 0.00 | 0.00 | 0.00 | 67 | 1029.8 |
| 20260508221624 | 52 | 97 | 5.0 | 8.0 | 0.00 | 0.00 | 0.00 | 67 | 1029.9 |
| 20260508221120 | 52 | 106 | 6.0 | 7.0 | 0.00 | 0.00 | 0.00 | 68 | 1029.6 |
| 20260508220617 | 52 | 101 | 5.0 | 8.0 | 0.00 | 0.00 | 0.00 | 67 | 1029.8 |
| 20260508220114 | 52 | 93 | 6.0 | 8.0 | 0.00 | 0.00 | 0.00 | 67 | 1029.7 |
| 20260508215610 | 52 | 102 | 5.0 | 9.0 | 0.00 | 0.00 | 0.00 | 67 | 1029.7 |
| 20260508215107 | 52 | 103 | 5.0 | 6.0 | 0.00 | 0.00 | 0.00 | 67 | 1029.7 |
| 20260508214604 | 52 | 106 | 4.0 | 6.0 | 0.00 | 0.00 | 0.00 | 67 | 1029.8 |
| 20260508214101 | 52 | 104 | 5.0 | 5.0 | 0.00 | 0.00 | 0.00 | 66 | 1029.7 |
| 20260508213558 | 53 | 116 | 4.0 | 5.0 | 0.00 | 0.00 | 0.00 | 66 | 1029.7 |
| 20260508213054 | 52 | 130 | 3.0 | 4.0 | 0.00 | 0.00 | 0.00 | 66 | 1029.5 |
| 20260508212550 | 53 | 110 | 3.0 | 4.0 | 0.00 | 0.00 | 0.00 | 65 | 1029.6 |
| 20260508212047 | 53 | 97 | 3.0 | 5.0 | 0.00 | 0.00 | 0.00 | 64 | 1029.7 |
| 20260508211542 | 53 | 102 | 4.0 | 7.0 | 0.00 | 0.00 | 0.00 | 64 | 1029.5 |
| 20260508211039 | 53 | 79 | 6.0 | 7.0 | 0.00 | 0.00 | 0.00 | 63 | 1029.6 |
| 20260508210535 | 54 | 84 | 5.0 | 6.0 | 0.00 | 0.00 | 0.00 | 63 | 1029.5 |
| 20260508210033 | 53 | 93 | 4.0 | 5.0 | 0.00 | 0.00 | 0.00 | 64 | 1029.5 |
| 20260508205530 | 53 | 106 | 4.0 | 4.0 | 0.00 | 0.00 | 0.00 | 64 | 1029.5 |
| 20260508205026 | 53 | 134 | 1.0 | 2.0 | 0.00 | 0.00 | 0.00 | 65 | 1029.4 |
| 20260508204523 | 53 | 147 | 0.0 | 3.0 | 0.00 | 0.00 | 0.00 | 64 | 1029.2 |
| 20260508204019 | 54 | 175 | 1.0 | 2.0 | 0.00 | 0.00 | 0.00 | 63 | 1029.3 |
| 20260508203515 | 55 | 111 | 3.0 | 4.0 | 0.00 | 0.00 | 0.00 | 61 | 1029.4 |
| 20260508203011 | 55 | 91 | 4.0 | 5.0 | 0.00 | 0.00 | 0.00 | 60 | 1029.2 |
| 20260508202508 | 55 | 89 | 3.0 | 4.0 | 0.00 | 0.00 | 0.00 | 59 | 1029.4 |
| 20260508202005 | 56 | 92 | 3.0 | 4.0 | 0.00 | 0.00 | 0.00 | 59 | 1029.2 |
| 20260508201501 | 56 | 91 | 3.0 | 5.0 | 0.00 | 0.00 | 0.00 | 59 | 1029.3 |
| 20260508200958 | 56 | 93 | 4.0 | 5.0 | 0.00 | 0.00 | 0.00 | 59 | 1029.2 |
| 20260508200456 | 56 | 95 | 3.0 | 5.0 | 0.00 | 0.00 | 0.00 | 59 | 1029.2 |
| 20260508195950 | 56 | 88 | 4.0 | 5.0 | 0.00 | 0.00 | 0.00 | 58 | 1029.1 |
| 20260508195448 | 57 | 95 | 4.0 | 5.0 | 0.00 | 0.00 | 0.00 | 57 | 1029.3 |
| 20260508194944 | 57 | 88 | 5.0 | 5.0 | 0.00 | 0.00 | 0.00 | 57 | 1029.1 |
| 20260508194441 | 57 | 97 | 2.0 | 6.0 | 0.00 | 0.00 | 0.00 | 56 | 1029.2 |
| 20260508193938 | 58 | 73 | 6.0 | 6.0 | 0.00 | 0.00 | 0.00 | 55 | 1028.9 |
| 20260508193435 | 58 | 53 | 5.0 | 9.0 | 0.00 | 0.00 | 0.00 | 54 | 1029.0 |
| 20260508192931 | 58 | 76 | 6.0 | 7.0 | 0.00 | 0.00 | 0.00 | 54 | 1029.0 |
| 20260508192428 | 58 | 77 | 9.0 | 10.0 | 0.00 | 0.00 | 0.00 | 54 | 1029.0 |
| 20260508191925 | 59 | 59 | 6.0 | 9.0 | 0.00 | 0.00 | 0.00 | 54 | 1028.9 |
| 20260508191422 | 59 | 88 | 5.0 | 10.0 | 0.00 | 0.00 | 0.00 | 54 | 1028.9 |
| 20260508190919 | 59 | 58 | 7.0 | 13.0 | 0.00 | 0.00 | 0.00 | 53 | 1029.0 |
| 20260508190416 | 59 | 52 | 6.0 | 11.0 | 0.00 | 0.00 | 0.00 | 53 | 1028.8 |
| 20260508185912 | 59 | 81 | 9.0 | 9.0 | 0.00 | 0.00 | 0.00 | 53 | 1029.0 |
| 20260508185410 | 59 | 75 | 5.0 | 11.0 | 0.00 | 0.00 | 0.00 | 53 | 1029.0 |
| 20260508184907 | 59 | 69 | 7.0 | 14.0 | 0.00 | 0.00 | 0.00 | 52 | 1028.9 |
| 20260508184404 | 59 | 83 | 8.0 | 11.0 | 0.00 | 0.00 | 0.00 | 53 | 1028.8 |
| 20260508183901 | 59 | 69 | 9.0 | 13.0 | 0.00 | 0.00 | 0.00 | 53 | 1028.8 |
| 20260508183358 | 59 | 79 | 8.0 | 13.0 | 0.00 | 0.00 | 0.00 | 53 | 1028.7 |
| 20260508182853 | 59 | 71 | 11.0 | 13.0 | 0.00 | 0.00 | 0.00 | 52 | 1028.9 |
| 20260508182350 | 60 | 77 | 10.0 | 13.0 | 0.00 | 0.00 | 0.00 | 52 | 1028.7 |
| 20260508181846 | 60 | 78 | 7.0 | 14.0 | 0.00 | 0.00 | 0.00 | 52 | 1028.8 |
| 20260508181343 | 60 | 94 | 16.0 | 17.0 | 0.00 | 0.00 | 0.00 | 52 | 1028.9 |
| 20260508180840 | 60 | 71 | 7.0 | 16.0 | 0.00 | 0.00 | 0.00 | 52 | 1028.8 |
| 20260508180337 | 60 | 74 | 11.0 | 15.0 | 0.00 | 0.00 | 0.00 | 51 | 1028.7 |
| 20260508175833 | 60 | 61 | 8.0 | 13.0 | 0.00 | 0.00 | 0.00 | 51 | 1029.0 |
| 20260508175329 | 60 | 96 | 6.0 | 15.0 | 0.00 | 0.00 | 0.00 | 51 | 1028.9 |
| 20260508174828 | 60 | 54 | 8.0 | 11.0 | 0.00 | 0.00 | 0.00 | 51 | 1028.9 |
| 20260508174325 | 60 | 75 | 10.0 | 11.0 | 0.00 | 0.00 | 0.00 | 51 | 1028.9 |
| 20260508173821 | 60 | 60 | 9.0 | 13.0 | 0.00 | 0.00 | 0.00 | 50 | 1028.9 |
| 20260508173318 | 61 | 72 | 9.0 | 13.0 | 0.00 | 0.00 | 0.00 | 50 | 1028.9 |
| 20260508172814 | 61 | 59 | 9.0 | 14.0 | 0.00 | 0.00 | 0.00 | 50 | 1028.9 |
| 20260508172311 | 60 | 65 | 9.0 | 12.0 | 0.00 | 0.00 | 0.00 | 50 | 1029.0 |
| 20260508171808 | 61 | 87 | 5.0 | 9.0 | 0.00 | 0.00 | 0.00 | 50 | 1028.9 |
| 20260508171304 | 61 | 59 | 5.0 | 13.0 | 0.00 | 0.00 | 0.00 | 50 | 1028.8 |
| 20260508170801 | 60 | 43 | 7.0 | 9.0 | 0.00 | 0.00 | 0.00 | 50 | 1028.8 |
| 20260508170259 | 60 | 46 | 3.0 | 8.0 | 0.00 | 0.00 | 0.00 | 51 | 1029.1 |
| 20260508165755 | 60 | 60 | 4.0 | 11.0 | 0.00 | 0.00 | 0.00 | 50 | 1028.9 |
| 20260508165253 | 60 | 71 | 7.0 | 9.0 | 0.00 | 0.00 | 0.00 | 50 | 1028.9 |
| 20260508164748 | 60 | 55 | 7.0 | 8.0 | 0.00 | 0.00 | 0.00 | 50 | 1029.0 |
| 20260508164245 | 60 | 92 | 3.0 | 7.0 | 0.00 | 0.00 | 0.00 | 50 | 1028.8 |
| 20260508163743 | 60 | 73 | 6.0 | 8.0 | 0.00 | 0.00 | 0.00 | 50 | 1028.8 |
| 20260508163241 | 60 | 93 | 6.0 | 10.0 | 0.00 | 0.00 | 0.00 | 50 | 1028.8 |
| 20260508162736 | 61 | 79 | 7.0 | 8.0 | 0.00 | 0.00 | 0.00 | 49 | 1028.8 |
| 20260508162234 | 61 | 88 | 6.0 | 10.0 | 0.00 | 0.00 | 0.00 | 48 | 1028.9 |
| 20260508161730 | 61 | 88 | 7.0 | 11.0 | 0.00 | 0.00 | 0.00 | 48 | 1028.8 |
| 20260508161228 | 61 | 81 | 9.0 | 11.0 | 0.00 | 0.00 | 0.00 | 48 | 1028.6 |
| 20260508160726 | 62 | 84 | 6.0 | 13.0 | 0.00 | 0.00 | 0.00 | 47 | 1028.7 |
| 20260508160224 | 62 | 78 | 7.0 | 13.0 | 0.00 | 0.00 | 0.00 | 46 | 1028.7 |
| 20260508155720 | 62 | 86 | 5.0 | 11.0 | 0.00 | 0.00 | 0.00 | 46 | 1028.7 |
| 20260508155217 | 63 | 91 | 5.0 | 13.0 | 0.00 | 0.00 | 0.00 | 45 | 1028.9 |
| 20260508154714 | 63 | 80 | 8.0 | 13.0 | 0.00 | 0.00 | 0.00 | 45 | 1028.8 |
| 20260508154211 | 63 | 72 | 6.0 | 10.0 | 0.00 | 0.00 | 0.00 | 45 | 1029.0 |
| 20260508153708 | 63 | 73 | 7.0 | 9.0 | 0.00 | 0.00 | 0.00 | 45 | 1029.1 |
| 20260508153205 | 63 | 86 | 10.0 | 11.0 | 0.00 | 0.00 | 0.00 | 46 | 1028.7 |
| 20260508152701 | 63 | 70 | 6.0 | 9.0 | 0.00 | 0.00 | 0.00 | 46 | 1028.9 |
| 20260508152157 | 63 | 66 | 7.0 | 12.0 | 0.00 | 0.00 | 0.00 | 46 | 1028.9 |
| 20260508151654 | 62 | 64 | 9.0 | 11.0 | 0.00 | 0.00 | 0.00 | 46 | 1028.7 |
| 20260508151151 | 62 | 73 | 8.0 | 14.0 | 0.00 | 0.00 | 0.00 | 46 | 1028.9 |
| 20260508150647 | 62 | 56 | 5.0 | 9.0 | 0.00 | 0.00 | 0.00 | 47 | 1029.1 |
| 20260508150144 | 62 | 76 | 5.0 | 7.0 | 0.00 | 0.00 | 0.00 | 47 | 1028.9 |
| 20260508145640 | 62 | 66 | 4.0 | 7.0 | 0.00 | 0.00 | 0.00 | 47 | 1028.9 |
| 20260508145136 | 63 | 85 | 6.0 | 10.0 | 0.00 | 0.00 | 0.00 | 46 | 1029.1 |
| 20260508144634 | 63 | 88 | 8.0 | 10.0 | 0.00 | 0.00 | 0.00 | 46 | 1028.9 |
| 20260508144132 | 62 | 62 | 6.0 | 11.0 | 0.00 | 0.00 | 0.00 | 47 | 1029.1 |
| 20260508143629 | 63 | 67 | 6.0 | 9.0 | 0.00 | 0.00 | 0.00 | 47 | 1029.1 |
| 20260508143125 | 63 | 77 | 7.0 | 9.0 | 0.00 | 0.00 | 0.00 | 47 | 1029.0 |
| 20260508142622 | 63 | 65 | 6.0 | 10.0 | 0.00 | 0.00 | 0.00 | 47 | 1029.1 |
| 20260508142119 | 63 | 79 | 8.0 | 9.0 | 0.00 | 0.00 | 0.00 | 47 | 1029.2 |
| 20260508141615 | 63 | 79 | 5.0 | 11.0 | 0.00 | 0.00 | 0.00 | 47 | 1029.1 |
| 20260508141113 | 63 | 92 | 7.0 | 9.0 | 0.00 | 0.00 | 0.00 | 48 | 1029.1 |
| 20260508140610 | 63 | 78 | 5.0 | 8.0 | 0.00 | 0.00 | 0.00 | 49 | 1029.2 |
| 20260508140107 | 63 | 74 | 7.0 | 8.0 | 0.00 | 0.00 | 0.00 | 48 | 1029.2 |
| 20260508135602 | 63 | 81 | 7.0 | 9.0 | 0.00 | 0.00 | 0.00 | 49 | 1029.1 |
| 20260508135059 | 62 | 85 | 5.0 | 9.0 | 0.00 | 0.00 | 0.00 | 50 | 1029.3 |
| 20260508134555 | 62 | 76 | 5.0 | 9.0 | 0.00 | 0.00 | 0.00 | 51 | 1029.1 |
| 20260508134052 | 62 | 82 | 5.0 | 7.0 | 0.00 | 0.00 | 0.00 | 52 | 1029.3 |
| 20260508133549 | 62 | 88 | 5.0 | 8.0 | 0.00 | 0.00 | 0.00 | 51 | 1029.2 |
| 20260508133047 | 62 | 80 | 6.0 | 8.0 | 0.00 | 0.00 | 0.00 | 52 | 1029.2 |
| 20260508132544 | 62 | 93 | 6.0 | 9.0 | 0.00 | 0.00 | 0.00 | 52 | 1029.3 |
| 20260508132041 | 62 | 83 | 6.0 | 7.0 | 0.00 | 0.00 | 0.00 | 53 | 1029.0 |
| 20260508131536 | 62 | 77 | 5.0 | 8.0 | 0.00 | 0.00 | 0.00 | 53 | 1029.2 |
| 20260508131033 | 62 | 81 | 4.0 | 6.0 | 0.00 | 0.00 | 0.00 | 53 | 1029.1 |
| 20260508130530 | 63 | 81 | 5.0 | 6.0 | 0.00 | 0.00 | 0.00 | 52 | 1029.1 |
| 20260508130026 | 63 | 88 | 6.0 | 8.0 | 0.00 | 0.00 | 0.00 | 51 | 1029.2 |
| 20260508125522 | 63 | 86 | 6.0 | 8.0 | 0.00 | 0.00 | 0.00 | 51 | 1029.1 |
| 20260508125020 | 63 | 91 | 4.0 | 7.0 | 0.00 | 0.00 | 0.00 | 52 | 1029.1 |
| 20260508124518 | 63 | 89 | 4.0 | 7.0 | 0.00 | 0.00 | 0.00 | 52 | 1029.1 |
| 20260508124015 | 63 | 99 | 7.0 | 7.0 | 0.00 | 0.00 | 0.00 | 52 | 1029.1 |
| 20260508123514 | 63 | 94 | 5.0 | 6.0 | 0.00 | 0.00 | 0.00 | 52 | 1028.8 |
| 20260508123010 | 63 | 92 | 5.0 | 8.0 | 0.00 | 0.00 | 0.00 | 52 | 1029.0 |
| 20260508122507 | 63 | 87 | 4.0 | 6.0 | 0.00 | 0.00 | 0.00 | 52 | 1029.0 |
| 20260508122004 | 63 | 89 | 7.0 | 7.0 | 0.00 | 0.00 | 0.00 | 52 | 1029.0 |
| 20260508121502 | 63 | 85 | 6.0 | 7.0 | 0.00 | 0.00 | 0.00 | 53 | 1028.8 |
| 20260508120959 | 63 | 91 | 4.0 | 6.0 | 0.00 | 0.00 | 0.00 | 52 | 1028.9 |
| 20260508120457 | 63 | 100 | 5.0 | 8.0 | 0.00 | 0.00 | 0.00 | 52 | 1029.1 |
| 20260508115955 | 64 | 101 | 5.0 | 7.0 | 0.00 | 0.00 | 0.00 | 51 | 1029.0 |
| 20260508115452 | 64 | 93 | 7.0 | 8.0 | 0.00 | 0.00 | 0.00 | 50 | 1029.0 |
| 20260508114948 | 64 | 85 | 7.0 | 8.0 | 0.00 | 0.00 | 0.00 | 51 | 1029.0 |
| 20260508114446 | 64 | 95 | 6.0 | 7.0 | 0.00 | 0.00 | 0.00 | 51 | 1029.0 |
| 20260508113942 | 64 | 84 | 3.0 | 7.0 | 0.00 | 0.00 | 0.00 | 51 | 1029.0 |
| 20260508113440 | 64 | 100 | 4.0 | 7.0 | 0.00 | 0.00 | 0.00 | 52 | 1028.9 |
| 20260508112937 | 64 | 96 | 5.0 | 7.0 | 0.00 | 0.00 | 0.00 | 52 | 1029.0 |
| 20260508112433 | 64 | 109 | 5.0 | 6.0 | 0.00 | 0.00 | 0.00 | 51 | 1028.9 |
| 20260508111930 | 65 | 103 | 4.0 | 5.0 | 0.00 | 0.00 | 0.00 | 51 | 1029.0 |
| 20260508111427 | 65 | 105 | 4.0 | 5.0 | 0.00 | 0.00 | 0.00 | 50 | 1029.0 |
| 20260508110924 | 65 | 101 | 4.0 | 6.0 | 0.00 | 0.00 | 0.00 | 50 | 1028.9 |
| 20260508110422 | 65 | 101 | 4.0 | 8.0 | 0.00 | 0.00 | 0.00 | 50 | 1029.0 |
| 20260508105921 | 65 | 104 | 5.0 | 7.0 | 0.00 | 0.00 | 0.00 | 50 | 1029.0 |
| 20260508105418 | 65 | 100 | 4.0 | 7.0 | 0.00 | 0.00 | 0.00 | 50 | 1029.0 |
| 20260508104915 | 66 | 92 | 6.0 | 7.0 | 0.00 | 0.00 | 0.00 | 50 | 1029.1 |
| 20260508104413 | 66 | 103 | 5.0 | 8.0 | 0.00 | 0.00 | 0.00 | 49 | 1028.9 |
| 20260508103909 | 66 | 99 | 4.0 | 6.0 | 0.00 | 0.00 | 0.00 | 49 | 1028.9 |
| 20260508103406 | 66 | 104 | 6.0 | 8.0 | 0.00 | 0.00 | 0.00 | 49 | 1028.9 |
| 20260508102904 | 66 | 108 | 4.0 | 8.0 | 0.00 | 0.00 | 0.00 | 48 | 1028.8 |
| 20260508102402 | 66 | 94 | 4.0 | 7.0 | 0.00 | 0.00 | 0.00 | 48 | 1028.8 |
| 20260508101859 | 67 | 94 | 6.0 | 8.0 | 0.00 | 0.00 | 0.00 | 48 | 1028.8 |
| 20260508101356 | 67 | 83 | 5.0 | 10.0 | 0.00 | 0.00 | 0.00 | 47 | 1028.7 |
| 20260508100853 | 67 | 96 | 6.0 | 8.0 | 0.00 | 0.00 | 0.00 | 47 | 1028.8 |
| 20260508100352 | 68 | 91 | 4.0 | 7.0 | 0.00 | 0.00 | 0.00 | 46 | 1028.9 |
| 20260508095847 | 68 | 88 | 5.0 | 9.0 | 0.00 | 0.00 | 0.00 | 46 | 1028.6 |
| 20260508095345 | 68 | 97 | 5.0 | 8.0 | 0.00 | 0.00 | 0.00 | 46 | 1028.6 |
| 20260508094842 | 69 | 81 | 6.0 | 10.0 | 0.00 | 0.00 | 0.00 | 45 | 1028.6 |
| 20260508094339 | 69 | 95 | 3.0 | 8.0 | 0.00 | 0.00 | 0.00 | 46 | 1028.5 |
| 20260508093836 | 69 | 101 | 4.0 | 9.0 | 0.00 | 0.00 | 0.00 | 45 | 1028.7 |
| 20260508093333 | 70 | 85 | 5.0 | 8.0 | 0.00 | 0.00 | 0.00 | 45 | 1028.7 |
| 20260508092831 | 70 | 82 | 5.0 | 9.0 | 0.00 | 0.00 | 0.00 | 44 | 1028.6 |
| 20260508092328 | 71 | 86 | 6.0 | 9.0 | 0.00 | 0.00 | 0.00 | 43 | 1028.7 |
| 20260508091826 | 71 | 91 | 9.0 | 10.0 | 0.00 | 0.00 | 0.00 | 42 | 1028.4 |
| 20260508091322 | 71 | 81 | 8.0 | 15.0 | 0.00 | 0.00 | 0.00 | 41 | 1028.4 |
| 20260508090820 | 72 | 87 | 9.0 | 13.0 | 0.00 | 0.00 | 0.00 | 41 | 1028.5 |
| 20260508090319 | 72 | 86 | 7.0 | 13.0 | 0.00 | 0.00 | 0.00 | 41 | 1028.3 |
| 20260508085814 | 72 | 86 | 5.0 | 10.0 | 0.00 | 0.00 | 0.00 | 42 | 1028.3 |
| 20260508085311 | 73 | 96 | 9.0 | 11.0 | 0.00 | 0.00 | 0.00 | 41 | 1028.1 |
| 20260508084808 | 73 | 92 | 7.0 | 14.0 | 0.00 | 0.00 | 0.00 | 41 | 1028.2 |
| 20260508084305 | 73 | 73 | 5.0 | 10.0 | 0.00 | 0.00 | 0.00 | 41 | 1028.2 |
| 20260508083802 | 73 | 86 | 8.0 | 17.0 | 0.00 | 0.00 | 0.00 | 40 | 1028.2 |
| 20260508083259 | 73 | 91 | 13.0 | 15.0 | 0.00 | 0.00 | 0.00 | 40 | 1028.3 |
| 20260508082759 | 73 | 88 | 12.0 | 16.0 | 0.00 | 0.00 | 0.00 | 40 | 1028.3 |
| 20260508082257 | 74 | 51 | 9.0 | 10.0 | 0.00 | 0.00 | 0.00 | 41 | 1028.2 |
| 20260508081754 | 73 | 96 | 7.0 | 11.0 | 0.00 | 0.00 | 0.00 | 41 | 1028.1 |
| 20260508081251 | 73 | 78 | 10.0 | 17.0 | 0.00 | 0.00 | 0.00 | 40 | 1028.2 |
| 20260508080748 | 73 | 70 | 13.0 | 15.0 | 0.00 | 0.00 | 0.00 | 40 | 1028.3 |
| 20260508080246 | 74 | 85 | 13.0 | 16.0 | 0.00 | 0.00 | 0.00 | 40 | 1028.2 |
| 20260508075742 | 73 | 86 | 5.0 | 14.0 | 0.00 | 0.00 | 0.00 | 40 | 1028.1 |
| 20260508075239 | 74 | 86 | 8.0 | 14.0 | 0.00 | 0.00 | 0.00 | 39 | 1028.3 |
| 20260508074737 | 73 | 86 | 9.0 | 15.0 | 0.00 | 0.00 | 0.00 | 40 | 1028.3 |
| 20260508074234 | 73 | 75 | 6.0 | 17.0 | 0.00 | 0.00 | 0.00 | 40 | 1028.2 |
| 20260508073731 | 73 | 81 | 9.0 | 15.0 | 0.00 | 0.00 | 0.00 | 40 | 1028.3 |
| 20260508073229 | 74 | 89 | 9.0 | 15.0 | 0.00 | 0.00 | 0.00 | 40 | 1028.2 |
| 20260508072725 | 73 | 99 | 9.0 | 15.0 | 0.00 | 0.00 | 0.00 | 40 | 1028.2 |
| 20260508072222 | 74 | 95 | 8.0 | 15.0 | 0.00 | 0.00 | 0.00 | 40 | 1028.4 |
| 20260508071719 | 74 | 80 | 12.0 | 14.0 | 0.00 | 0.00 | 0.00 | 40 | 1028.2 |
| 20260508071217 | 74 | 84 | 10.0 | 16.0 | 0.00 | 0.00 | 0.00 | 40 | 1028.2 |
| 20260508070714 | 74 | 62 | 11.0 | 17.0 | 0.00 | 0.00 | 0.00 | 40 | 1028.4 |
| 20260508070213 | 74 | 49 | 16.0 | 19.0 | 0.00 | 0.00 | 0.00 | 39 | 1028.3 |
| 20260508065710 | 74 | 56 | 13.0 | 18.0 | 0.00 | 0.00 | 0.00 | 40 | 1028.3 |
| 20260508065208 | 73 | 109 | 11.0 | 18.0 | 0.00 | 0.00 | 0.00 | 40 | 1028.3 |
| 20260508064705 | 74 | 95 | 14.0 | 19.0 | 0.00 | 0.00 | 0.00 | 40 | 1028.3 |
| 20260508064203 | 74 | 84 | 13.0 | 14.0 | 0.00 | 0.00 | 0.00 | 41 | 1028.3 |
| 20260508063700 | 73 | 97 | 12.0 | 20.0 | 0.00 | 0.00 | 0.00 | 42 | 1028.3 |
| 20260508063158 | 73 | 98 | 5.0 | 17.0 | 0.00 | 0.00 | 0.00 | 41 | 1028.4 |
| 20260508062655 | 73 | 95 | 8.0 | 15.0 | 0.00 | 0.00 | 0.00 | 41 | 1028.6 |
| 20260508062152 | 74 | 70 | 9.0 | 16.0 | 0.00 | 0.00 | 0.00 | 42 | 1028.4 |
| 20260508061649 | 73 | 63 | 2.0 | 10.0 | 0.00 | 0.00 | 0.00 | 45 | 1028.4 |
| 20260508061147 | 74 | 100 | 6.0 | 8.0 | 0.00 | 0.00 | 0.00 | 44 | 1028.5 |
| 20260508060643 | 73 | 96 | 11.0 | 14.0 | 0.00 | 0.00 | 0.00 | 44 | 1028.5 |
| 20260508060141 | 73 | 95 | 8.0 | 16.0 | 0.00 | 0.00 | 0.00 | 44 | 1028.8 |
| 20260508055636 | 73 | 123 | 9.0 | 14.0 | 0.00 | 0.00 | 0.00 | 44 | 1028.6 |
| 20260508055133 | 73 | 86 | 5.0 | 11.0 | 0.00 | 0.00 | 0.00 | 43 | 1028.9 |
| 20260508054629 | 73 | 83 | 8.0 | 16.0 | 0.00 | 0.00 | 0.00 | 44 | 1028.9 |
| 20260508054127 | 73 | 91 | 8.0 | 13.0 | 0.00 | 0.00 | 0.00 | 44 | 1028.9 |
| 20260508053624 | 73 | 60 | 10.0 | 12.0 | 0.00 | 0.00 | 0.00 | 44 | 1029.1 |
| 20260508053122 | 73 | 38 | 15.0 | 15.0 | 0.00 | 0.00 | 0.00 | 43 | 1029.1 |
| 20260508052619 | 73 | 46 | 10.0 | 15.0 | 0.00 | 0.00 | 0.00 | 44 | 1029.2 |
| 20260508052116 | 73 | 67 | 4.0 | 13.0 | 0.00 | 0.00 | 0.00 | 44 | 1029.2 |
| 20260508051612 | 72 | 79 | 7.0 | 10.0 | 0.00 | 0.00 | 0.00 | 45 | 1029.3 |
| 20260508051107 | 73 | 74 | 5.0 | 14.0 | 0.00 | 0.00 | 0.00 | 43 | 1029.4 |
| 20260508050604 | 72 | 29 | 3.0 | 11.0 | 0.00 | 0.00 | 0.00 | 45 | 1029.4 |
| 20260508045557 | 72 | 41 | 12.0 | 15.0 | 0.00 | 0.00 | 0.00 | 45 | 1029.5 |
| 20260508045055 | 72 | 85 | 5.0 | 13.0 | 0.00 | 0.00 | 0.00 | 45 | 1029.6 |
| 20260508044552 | 71 | 93 | 12.0 | 18.0 | 0.00 | 0.00 | 0.00 | 46 | 1029.5 |
| 20260508044048 | 71 | 66 | 9.0 | 15.0 | 0.00 | 0.00 | 0.00 | 45 | 1029.5 |
| 20260508043545 | 71 | 68 | 7.0 | 13.0 | 0.00 | 0.00 | 0.00 | 47 | 1029.9 |
| 20260508043043 | 71 | 31 | 8.0 | 18.0 | 0.00 | 0.00 | 0.00 | 47 | 1030.0 |
| 20260508042539 | 71 | 58 | 13.0 | 17.0 | 0.00 | 0.00 | 0.00 | 46 | 1030.1 |
| 20260508042037 | 71 | 58 | 11.0 | 19.0 | 0.00 | 0.00 | 0.00 | 47 | 1030.2 |
| 20260508041533 | 70 | 48 | 14.0 | 15.0 | 0.00 | 0.00 | 0.00 | 49 | 1030.3 |
| 20260508041029 | 70 | 31 | 10.0 | 19.0 | 0.00 | 0.00 | 0.00 | 49 | 1030.5 |
| 20260508040526 | 70 | 46 | 11.0 | 20.0 | 0.00 | 0.00 | 0.00 | 48 | 1030.4 |
| 20260508040024 | 70 | 81 | 14.0 | 18.0 | 0.00 | 0.00 | 0.00 | 48 | 1030.5 |
| 20260508035520 | 70 | 43 | 11.0 | 17.0 | 0.00 | 0.00 | 0.00 | 49 | 1030.6 |
| 20260508035018 | 70 | 37 | 16.0 | 17.0 | 0.00 | 0.00 | 0.00 | 49 | 1030.7 |
| 20260508034515 | 70 | 86 | 10.0 | 17.0 | 0.00 | 0.00 | 0.00 | 48 | 1031.0 |
| 20260508034012 | 70 | 38 | 19.0 | 21.0 | 0.00 | 0.00 | 0.00 | 49 | 1030.8 |
| 20260508033509 | 69 | 58 | 14.0 | 20.0 | 0.00 | 0.00 | 0.00 | 48 | 1031.0 |
| 20260508033007 | 70 | 24 | 12.0 | 21.0 | 0.00 | 0.00 | 0.00 | 49 | 1031.2 |
| 20260508032504 | 69 | 40 | 13.0 | 19.0 | 0.00 | 0.00 | 0.00 | 50 | 1031.2 |
| 20260508032001 | 69 | 46 | 17.0 | 20.0 | 0.00 | 0.00 | 0.00 | 49 | 1031.4 |
| 20260508031459 | 69 | 32 | 15.0 | 20.0 | 0.00 | 0.00 | 0.00 | 50 | 1031.3 |
| 20260508030953 | 69 | 40 | 12.0 | 20.0 | 0.00 | 0.00 | 0.00 | 50 | 1031.4 |
| 20260508030451 | 69 | 34 | 11.0 | 15.0 | 0.00 | 0.00 | 0.00 | 52 | 1031.5 |
| 20260508025948 | 69 | 59 | 9.0 | 17.0 | 0.00 | 0.00 | 0.00 | 51 | 1031.4 |
| 20260508025444 | 68 | 80 | 10.0 | 17.0 | 0.00 | 0.00 | 0.00 | 51 | 1031.5 |
| 20260508024942 | 68 | 60 | 15.0 | 22.0 | 0.00 | 0.00 | 0.00 | 52 | 1031.7 |
| 20260508024438 | 68 | 61 | 8.0 | 20.0 | 0.00 | 0.00 | 0.00 | 54 | 1031.6 |
| 20260508023935 | 67 | 40 | 9.0 | 20.0 | 0.00 | 0.00 | 0.00 | 55 | 1031.7 |
| 20260508023431 | 67 | 43 | 13.0 | 17.0 | 0.00 | 0.00 | 0.00 | 54 | 1031.8 |
| 20260508022929 | 66 | 44 | 7.0 | 18.0 | 0.00 | 0.00 | 0.00 | 56 | 1031.8 |
| 20260508022424 | 66 | 97 | 9.0 | 17.0 | 0.00 | 0.00 | 0.00 | 57 | 1031.8 |
| 20260508021921 | 66 | 57 | 11.0 | 14.0 | 0.00 | 0.00 | 0.00 | 57 | 1032.0 |
| 20260508021418 | 66 | 61 | 11.0 | 18.0 | 0.00 | 0.00 | 0.00 | 57 | 1032.0 |
| 20260508020913 | 65 | 68 | 12.0 | 21.0 | 0.00 | 0.00 | 0.00 | 58 | 1032.1 |
| 20260508020412 | 65 | 103 | 13.0 | 19.0 | 0.00 | 0.00 | 0.00 | 57 | 1032.0 |
| 20260508015908 | 65 | 86 | 5.0 | 11.0 | 0.00 | 0.00 | 0.00 | 59 | 1032.1 |
| 20260508015406 | 64 | 63 | 6.0 | 22.0 | 0.00 | 0.00 | 0.00 | 60 | 1032.2 |
| 20260508014902 | 64 | 87 | 7.0 | 18.0 | 0.00 | 0.00 | 0.00 | 60 | 1032.1 |
| 20260508014400 | 64 | 59 | 11.0 | 19.0 | 0.00 | 0.00 | 0.00 | 59 | 1032.2 |
| 20260508013855 | 64 | 79 | 6.0 | 20.0 | 0.00 | 0.00 | 0.00 | 61 | 1032.5 |
| 20260508013351 | 63 | 87 | 13.0 | 17.0 | 0.00 | 0.00 | 0.00 | 61 | 1032.5 |
| 20260508012849 | 63 | 84 | 9.0 | 16.0 | 0.00 | 0.00 | 0.00 | 61 | 1032.6 |
| 20260508012346 | 63 | 77 | 13.0 | 19.0 | 0.00 | 0.00 | 0.00 | 62 | 1032.6 |
| 20260508011844 | 63 | 84 | 8.0 | 19.0 | 0.00 | 0.00 | 0.00 | 62 | 1032.5 |
| 20260508011341 | 62 | 71 | 11.0 | 17.0 | 0.00 | 0.00 | 0.00 | 63 | 1032.6 |
| 20260508010838 | 62 | 78 | 7.0 | 18.0 | 0.00 | 0.00 | 0.00 | 64 | 1032.7 |
| 20260508010336 | 62 | 76 | 12.0 | 17.0 | 0.00 | 0.00 | 0.00 | 63 | 1032.6 |
| 20260508005833 | 62 | 92 | 11.0 | 20.0 | 0.00 | 0.00 | 0.00 | 64 | 1032.6 |
| 20260508005329 | 62 | 70 | 8.0 | 16.0 | 0.00 | 0.00 | 0.00 | 64 | 1032.7 |
| 20260508004825 | 61 | 58 | 13.0 | 17.0 | 0.00 | 0.00 | 0.00 | 64 | 1032.6 |
| 20260508004322 | 62 | 72 | 13.0 | 16.0 | 0.00 | 0.00 | 0.00 | 64 | 1032.6 |
| 20260508003818 | 61 | 75 | 11.0 | 16.0 | 0.00 | 0.00 | 0.00 | 65 | 1032.8 |
| 20260508003316 | 61 | 75 | 8.0 | 16.0 | 0.00 | 0.00 | 0.00 | 65 | 1032.7 |
| 20260508002813 | 60 | 74 | 15.0 | 17.0 | 0.00 | 0.00 | 0.00 | 66 | 1032.7 |